[[{"header":{"parameterUnit":"m.s-1","parameterCategory":2,"la1":30.2991,"la2":30.254,"lo1":-89.0895,"lo2":-89.0444,"dy":0.0017,"dx":0.0017,"nx":28,"ny":28,"refTime":"2025-04-18T03:00:00:Z","depth":"0","parameterNumber":2,"parameterNumberName":"U-component_of_CURRENTS"},"data":[0,0,0,0,0,0,0,0,0,0,0,0,0,0,0,0,0,0,0,0,0,0,0,0,0,0,0,0,0,0,0,0,0,0,0,0,0,0,0,0,0,0,0,0,0,0,0,0,0,0,0,0,0,0,0,0,0,0,-0.2832,-0.2832,0,-0.2844,-0.2843,-0.2843,-0.2816,-0.2815,-0.2814,-0.2814,-0.2762,-0.2762,-0.2761,0,0,0,0,0,0,0,0,0,0,0,0,0,-0.2772,-0.2773,-0.2832,-0.2832,-0.2833,-0.2844,-0.2843,-0.2843,-0.2816,-0.2815,-0.2814,-0.2814,-0.2763,-0.2762,-0.2761,0,0,0,0,0,0,0,0,0,0,0,0,0,-0.279,-0.2774,-0.2832,-0.2823,-0.2822,-0.2844,-0.2843,-0.2843,-0.2816,-0.2815,-0.2814,-0.2813,-0.2763,-0.2762,-0.2761,-0.2771,0,0,-0.2757,-0.2756,0,0,0,0,0,0,0,0,-0.2789,-0.2792,-0.2824,-0.2823,-0.2823,-0.283,-0.2804,-0.2817,-0.2816,-0.2815,-0.2814,-0.2813,-0.2782,-0.2779,-0.278,-0.2769,-0.2767,-0.2757,-0.2756,-0.2756,-0.2755,0,0,0,0,0,0,0,-0.2788,-0.2791,-0.2833,-0.2824,-0.2824,-0.2813,-0.2815,-0.2806,-0.28,-0.2815,-0.2814,-0.282,-0.2781,-0.2781,-0.2778,-0.2766,-0.2757,-0.2756,-0.2755,-0.2755,-0.2764,-0.2765,0,0,0,0,0,0,-0.2794,-0.279,-0.2833,-0.2834,-0.2807,-0.2815,-0.2817,-0.2826,-0.2801,-0.2798,-0.2821,-0.2819,-0.2784,-0.278,-0.2776,-0.2787,-0.2756,-0.2754,-0.2754,-0.2763,-0.2765,-0.2766,0,0,0,0,0,0,-0.2793,-0.2798,-0.2833,-0.2814,-0.2818,-0.2818,-0.2828,-0.2827,-0.2824,-0.2807,-0.2802,-0.282,-0.2783,-0.2778,-0.2774,-0.2785,-0.2754,-0.2753,-0.2762,-0.2764,-0.2765,-0.281,0,0,0,0,0,0,-0.2791,-0.2798,-0.2801,-0.2815,-0.282,-0.285,-0.2829,-0.2828,-0.2831,-0.2829,-0.2805,-0.2799,-0.2782,-0.2776,-0.2773,-0.2783,-0.2752,-0.2761,-0.2763,-0.2765,-0.2807,-0.2812,-0.2817,0,0,0,0,0,-0.2789,-0.2801,-0.2801,-0.2806,-0.2827,-0.2851,-0.2852,-0.2846,-0.2832,-0.2838,-0.2823,-0.28,-0.2785,-0.2776,-0.2772,-0.2782,-0.276,-0.2762,-0.2765,-0.2805,-0.2811,-0.2817,0,0,0,0,0,0,-0.2773,-0.28,-0.28,-0.2818,-0.2835,-0.2847,-0.285,-0.285,-0.2843,-0.2834,-0.2811,-0.2806,-0.2808,-0.2792,-0.2783,-0.2792,-0.2769,-0.2771,-0.2801,-0.2807,-0.2813,-0.2813,-0.2751,0,0,0,0,0,-0.2775,-0.2787,-0.2814,-0.2824,-0.2836,-0.2843,-0.2849,-0.2851,-0.2852,-0.2847,-0.2833,-0.2819,-0.2816,-0.2809,-0.2802,-0.2806,-0.2783,-0.2811,-0.2816,-0.282,-0.282,-0.2814,-0.2818,-0.2773,-0.2773,-0.2773,0,0,-0.2768,-0.2786,-0.279,-0.2821,-0.283,-0.2856,-0.2843,-0.2859,-0.2875,-0.2843,-0.2848,-0.2837,-0.2822,-0.2829,-0.2828,-0.2814,-0.2818,-0.2823,-0.2827,-0.2824,-0.2816,-0.282,-0.2824,-0.2775,-0.2774,-0.2774,0,0,-0.277,-0.2782,-0.2797,-0.282,-0.2846,-0.2858,-0.2866,-0.2884,-0.2884,-0.2896,-0.2879,-0.2874,-0.2866,-0.286,-0.2855,-0.2885,-0.2848,-0.2885,-0.2907,-0.2901,-0.2905,-0.2907,-0.2868,-0.2867,-0.2884,-0.2885,-0.2885,0,-0.2761,-0.2788,-0.2804,-0.2832,-0.2852,-0.2863,-0.289,-0.29,-0.2912,-0.2918,-0.2902,-0.29,-0.2881,-0.2894,-0.2902,-0.2895,-0.2877,-0.2883,-0.2907,-0.2909,-0.2911,-0.2871,-0.2869,-0.2887,-0.2887,-0.2886,-0.2886,0,-0.2778,-0.2805,-0.2817,-0.2856,-0.2881,-0.2905,-0.2934,-0.295,-0.295,-0.2958,-0.2968,-0.2949,-0.2945,-0.2943,-0.2927,-0.294,-0.2915,-0.2916,-0.2889,-0.2919,-0.2873,-0.2871,-0.289,-0.289,-0.2889,-0.2888,0,0,-0.2739,-0.2815,-0.2817,-0.2844,-0.2897,-0.2917,-0.2956,-0.2991,-0.3006,-0.3012,-0.3024,-0.302,-0.3005,-0.3,-0.2983,-0.2975,-0.2962,-0.2952,-0.295,-0.2908,-0.2926,-0.2841,-0.2829,-0.2971,-0.2971,-0.2971,-0.2882,0,-0.2744,-0.28,-0.2839,-0.2887,-0.2919,-0.2957,-0.2992,-0.3025,-0.3039,-0.3052,-0.3044,-0.3046,-0.303,-0.3021,-0.3016,-0.2979,-0.296,-0.2984,-0.2908,-0.2905,-0.2822,-0.2825,-0.2728,-0.2636,-0.288,-0.2879,-0.2879,0,-0.2739,-0.2782,-0.2834,-0.2909,-0.2925,-0.2956,-0.3008,-0.3041,-0.3076,-0.3085,-0.3095,-0.3086,-0.3077,-0.3055,-0.3011,-0.3029,-0.2979,-0.2946,-0.2942,-0.2845,-0.2815,-0.2651,-0.2622,-0.2606,-0.2874,-0.2874,-0.2875,0,-0.2689,-0.2772,-0.2811,-0.2837,-0.2925,-0.295,-0.299,-0.3041,-0.3066,-0.3097,-0.3104,-0.3108,-0.3088,-0.3057,-0.2987,-0.3002,-0.292,-0.2932,-0.2806,-0.2798,-0.269,-0.2672,-0.2632,-0.2894,-0.2894,-0.2894,-0.2895,0,-0.2671,-0.2697,-0.2789,-0.2808,-0.2849,-0.2922,-0.2958,-0.3,-0.3052,-0.3072,-0.3106,-0.3104,-0.3089,-0.3043,-0.299,-0.2874,-0.292,-0.2799,-0.2773,-0.27,-0.2685,-0.2646,-0.2667,-0.2891,-0.2892,-0.2892,-0.2893,0,-0.2597,-0.2663,-0.2708,-0.28,-0.2824,-0.2846,-0.293,-0.2955,-0.3019,-0.3042,-0.305,-0.3086,-0.3029,-0.2984,-0.2911,-0.2854,-0.2713,-0.2713,-0.2609,-0.2572,-0.2446,-0.2474,-0.2385,-0.2319,-0.2567,-0.2564,-0.2562,0,-0.256,-0.2578,-0.2671,-0.2686,-0.2722,-0.2774,-0.2806,-0.2909,-0.294,-0.3019,-0.3015,-0.2996,-0.2934,-0.2798,-0.2708,-0.2581,-0.259,-0.2429,-0.2445,-0.2414,-0.2426,-0.245,-0.2403,-0.2312,-0.2308,-0.2305,-0.2302,0,-0.2474,-0.2507,-0.2539,-0.2583,-0.2618,-0.2663,-0.2722,-0.2749,-0.2861,-0.2878,-0.2876,-0.2834,-0.2739,-0.2574,-0.2438,-0.2363,-0.2377,-0.2356,-0.2361,-0.2248,-0.2234,-0.2165,-0.2384,-0.2272,-0.2275,-0.2277,-0.2279,-0.228,-0.238,-0.238,-0.2421,-0.2446,-0.2489,-0.2511,-0.2503,-0.2576,-0.2592,-0.2592,-0.2663,-0.2556,-0.2477,-0.2269,-0.2197,-0.2073,-0.2139,-0.2026,-0.2065,-0.2094,-0.2023,-0.2158,-0.2002,-0.2003,-0.2004,-0.2005,-0.2006,0,-0.2246,-0.2259,-0.2279,-0.2305,-0.2297,-0.2367,-0.2407,-0.2362,-0.2324,-0.2349,-0.2305,-0.2199,-0.2053,-0.2009,-0.1905,-0.1818,-0.179,-0.1789,-0.182,-0.1788,-0.1925,-0.1908,-0.1678,-0.1679,-0.1679,-0.1679,-0.1679,-0.1679,-0.2172,-0.2136,-0.2154,-0.2092,-0.2111,-0.2057,-0.2044,-0.1968,-0.1942,-0.182,-0.178,-0.1762,-0.177,-0.1908,-0.1806,-0.1723,-0.1694,-0.1637,-0.1666,-0.1801,-0.1828,-0.1853,-0.1842,-0.1603,-0.1603,-0.147,-0.1469,-0.1469]},{"header":{"parameterUnit":"m.s-1","parameterCategory":2,"la1":30.2991,"la2":30.254,"lo1":-89.0895,"lo2":-89.0444,"dy":0.0017,"dx":0.0017,"nx":28,"ny":28,"refTime":"2025-04-18T03:00:00:Z","depth":"0","parameterNumber":3,"parameterNumberName":"V-component_of_CURRENTS"},"data":[0,0,0,0,0,0,0,0,0,0,0,0,0,0,0,0,0,0,0,0,0,0,0,0,0,0,0,0,0,0,0,0,0,0,0,0,0,0,0,0,0,0,0,0,0,0,0,0,0,0,0,0,0,0,0,0,0,0,-0.025,-0.0249,0,-0.0167,-0.0166,-0.0165,-0.0104,-0.0103,-0.0103,-0.0103,0.0021,0.0024,0.0027,0,0,0,0,0,0,0,0,0,0,0,0,0,-0.0305,-0.0304,-0.025,-0.0249,-0.0248,-0.0167,-0.0166,-0.0164,-0.0104,-0.0103,-0.0103,-0.0103,0.002,0.0023,0.0027,0,0,0,0,0,0,0,0,0,0,0,0,0,-0.0256,-0.0304,-0.025,-0.0209,-0.0205,-0.0167,-0.0166,-0.0164,-0.0104,-0.0103,-0.0103,-0.0102,0.0019,0.0023,0.0027,0.0043,0,0,0.0041,0.0043,0,0,0,0,0,0,0,0,-0.0259,-0.0254,-0.0216,-0.0212,-0.0207,-0.0146,-0.0139,-0.0093,-0.0104,-0.0141,-0.0103,-0.0102,-0.0033,-0.0024,-0.0008,0.0048,0.0054,0.0041,0.0044,0.0046,0.0047,0,0,0,0,0,0,0,-0.0262,-0.0257,-0.0216,-0.0215,-0.021,-0.0177,-0.017,-0.013,-0.0089,-0.0138,-0.0133,-0.0126,-0.0029,-0.0013,-0.0005,0.0056,0.0041,0.0045,0.0048,0.0049,0.0148,0.0148,0,0,0,0,0,0,-0.0279,-0.026,-0.0218,-0.0213,-0.0234,-0.0177,-0.0169,-0.0165,-0.009,-0.0079,-0.0127,-0.0124,-0.002,-0.001,-0.0,0.0028,0.0046,0.005,0.0052,0.0148,0.0148,0.0148,0,0,0,0,0,0,-0.028,-0.0276,-0.0222,-0.0236,-0.0227,-0.0177,-0.0173,-0.0164,-0.0147,-0.0083,-0.0071,-0.012,-0.002,-0.0006,0.0034,0.0033,0.0052,0.0056,0.0148,0.0148,0.0148,0.0081,0,0,0,0,0,0,-0.0282,-0.0277,-0.0282,-0.0237,-0.0227,-0.0208,-0.0174,-0.0163,-0.0144,-0.0139,-0.0073,-0.0061,-0.0018,0.0027,0.0039,0.004,0.0059,0.0148,0.0148,0.0148,0.0084,0.0079,0.0075,0,0,0,0,0,-0.0285,-0.0298,-0.0283,-0.0278,-0.0235,-0.0209,-0.02,-0.0162,-0.0145,-0.0143,-0.0095,-0.0063,0.0036,0.0031,0.0044,0.0046,0.0148,0.0148,0.0148,0.0085,0.008,0.0075,0,0,0,0,0,0,-0.0325,-0.0292,-0.0275,-0.0277,-0.0249,-0.0199,-0.0196,-0.0169,-0.013,-0.0125,-0.0062,-0.0047,-0.0012,0.0025,0.0019,0.0075,0.0097,0.01,0.0045,0.004,0.0036,0.0022,0.0063,0,0,0,0,0,-0.0338,-0.0338,-0.0298,-0.0301,-0.029,-0.0244,-0.023,-0.0204,-0.0163,-0.0146,-0.0098,-0.0047,-0.0002,0.0024,0.0066,0.0097,0.0147,0.0108,0.0103,0.0099,0.0097,0.0173,0.0176,0.0148,0.0148,0.0148,0,0,-0.0354,-0.0337,-0.0337,-0.031,-0.0284,-0.0278,-0.0234,-0.0219,-0.0207,-0.0138,-0.0111,-0.0063,0.0001,0.0036,0.0055,0.0069,0.0133,0.0099,0.0096,0.0096,0.0174,0.0176,0.0179,0.0148,0.0148,0.0148,0,0,-0.0394,-0.0373,-0.0389,-0.0369,-0.034,-0.0308,-0.0308,-0.0262,-0.0236,-0.0205,-0.015,-0.0102,-0.004,0.0011,0.0044,0.0043,0.0105,0.0054,0.0026,0.01,0.0103,0.0106,0.0168,0.0178,0.0055,0.0055,0.0055,0,-0.0418,-0.0428,-0.0389,-0.0397,-0.0387,-0.0328,-0.0339,-0.0303,-0.0249,-0.0222,-0.0207,-0.0098,-0.005,0.0011,0.0008,0.0034,0.0082,0.0038,0.0094,0.0098,0.0103,0.0166,0.0178,0.0052,0.0052,0.0053,0.0053,0,-0.0466,-0.0473,-0.048,-0.0469,-0.0451,-0.0451,-0.0399,-0.0374,-0.0334,-0.0289,-0.0226,-0.0152,-0.0085,-0.0062,-0.0029,0.0027,0.0052,0.0076,0.0104,0.0102,0.0169,0.0181,0.0047,0.0049,0.0049,0.005,0,0,-0.0524,-0.0519,-0.0521,-0.0528,-0.049,-0.0481,-0.0457,-0.0412,-0.0387,-0.0324,-0.0281,-0.0203,-0.0153,-0.0112,-0.0054,0.0009,0.0077,0.0047,0.0052,0.0102,0.0235,0.0278,0.0297,0.0111,0.0113,0.0115,0.0267,0,-0.0576,-0.0618,-0.0588,-0.0612,-0.0627,-0.0562,-0.0543,-0.0489,-0.0427,-0.0368,-0.0272,-0.0214,-0.0173,-0.014,-0.0071,0.0043,0.0108,0.0033,0.0235,0.0241,0.0276,0.0313,0.0369,0.0513,0.028,0.0283,0.0284,0,-0.0633,-0.0653,-0.0696,-0.0685,-0.0682,-0.068,-0.0626,-0.0599,-0.0494,-0.0442,-0.0356,-0.0276,-0.0172,-0.0141,0.0052,0.0002,0.0105,0.0193,0.0202,0.0275,0.0309,0.048,0.0545,0.0706,0.0305,0.0303,0.0301,0,-0.0705,-0.0722,-0.0761,-0.0761,-0.0739,-0.0734,-0.071,-0.0626,-0.059,-0.0484,-0.0442,-0.0304,-0.0223,-0.0083,0.0094,0.0076,0.0315,0.0317,0.0456,0.046,0.0566,0.0576,0.0807,0.0452,0.0452,0.0451,0.0451,0,-0.0776,-0.0802,-0.0801,-0.0825,-0.0855,-0.0805,-0.0801,-0.075,-0.066,-0.0607,-0.049,-0.0405,-0.0204,-0.0042,0.0099,0.0328,0.0325,0.0464,0.0511,0.0543,0.0549,0.0738,0.0782,0.0457,0.0456,0.0455,0.0454,0,-0.0852,-0.0851,-0.0896,-0.0896,-0.0896,-0.0916,-0.0877,-0.0861,-0.077,-0.0693,-0.0663,-0.0461,-0.0241,-0.0035,0.0227,0.0346,0.0655,0.0624,0.0642,0.0688,0.0939,0.0974,0.1225,0.132,0.0796,0.0798,0.08,0,-0.0896,-0.0931,-0.0964,-0.0994,-0.0999,-0.1012,-0.1015,-0.0933,-0.0897,-0.0715,-0.0677,-0.0445,-0.025,0.0144,0.0404,0.0678,0.0782,0.0871,0.0843,0.098,0.1055,0.1067,0.1128,0.096,0.0962,0.0965,0.0967,0,-0.0977,-0.0986,-0.1023,-0.1093,-0.1118,-0.1131,-0.1117,-0.1099,-0.0972,-0.0859,-0.0654,-0.0476,-0.0085,0.0285,0.0629,0.0788,0.0991,0.0927,0.1087,0.1219,0.1234,0.1338,0.0817,0.0988,0.0986,0.0985,0.0983,0.0982,-0.1024,-0.1073,-0.1122,-0.1181,-0.1213,-0.1221,-0.1189,-0.1124,-0.1017,-0.0766,-0.0635,-0.0269,0.0184,0.0698,0.0871,0.1254,0.1186,0.1367,0.1404,0.1408,0.149,0.1002,0.1206,0.1206,0.1205,0.1204,0.1204,0,-0.108,-0.1129,-0.1201,-0.1253,-0.1287,-0.1278,-0.1225,-0.1109,-0.0932,-0.0678,-0.0419,0.017,0.0633,0.1039,0.1529,0.1727,0.1755,0.1825,0.1875,0.1919,0.1528,0.1525,0.1787,0.1787,0.1787,0.1787,0.1786,0.1786,-0.1108,-0.1189,-0.1227,-0.1294,-0.1316,-0.1241,-0.1177,-0.0961,-0.0726,-0.0249,0.015,0.0421,0.0943,0.1676,0.2132,0.2169,0.2332,0.2311,0.2388,0.2131,0.2092,0.2053,0.2066,0.2437,0.2437,0.2783,0.2787,0.2789]}],[{"header":{"parameterUnit":"m.s-1","parameterCategory":2,"la1":30.2991,"la2":30.254,"lo1":-89.0895,"lo2":-89.0444,"dy":0.0017,"dx":0.0017,"nx":28,"ny":28,"refTime":"2025-04-18T03:00:00:Z","depth":"2","parameterNumber":2,"parameterNumberName":"U-component_of_CURRENTS"},"data":[0,0,0,0,0,0,0,0,0,0,0,0,0,0,0,0,0,0,0,0,0,0,0,0,0,0,0,0,0,0,0,0,0,0,0,0,0,0,0,0,0,0,0,0,0,0,0,0,0,0,0,0,0,0,0,0,0,0,-0.2667,-0.2668,0,-0.2681,-0.2681,-0.2681,-0.266,-0.2659,-0.2659,-0.2658,-0.2615,-0.2614,-0.2613,0,0,0,0,0,0,0,0,0,0,0,0,0,-0.2609,-0.261,-0.2667,-0.2668,-0.2668,-0.2681,-0.2681,-0.2681,-0.266,-0.2659,-0.2659,-0.2658,-0.2615,-0.2614,-0.2613,0,0,0,0,0,0,0,0,0,0,0,0,0,-0.2627,-0.261,-0.2667,-0.2661,-0.2661,-0.2681,-0.2681,-0.2681,-0.266,-0.2659,-0.2658,-0.2658,-0.2615,-0.2614,-0.2613,-0.2621,0,0,-0.261,-0.261,0,0,0,0,0,0,0,0,-0.2626,-0.2629,-0.2662,-0.2662,-0.2662,-0.267,-0.2645,-0.2659,-0.266,-0.2657,-0.2658,-0.2657,-0.2631,-0.2628,-0.2629,-0.2619,-0.2617,-0.261,-0.2609,-0.2609,-0.2608,0,0,0,0,0,0,0,-0.2625,-0.2628,-0.267,-0.2662,-0.2662,-0.2654,-0.2655,-0.2647,-0.2644,-0.2657,-0.2657,-0.2663,-0.263,-0.263,-0.2628,-0.2616,-0.261,-0.2609,-0.2608,-0.2608,-0.2621,-0.2622,0,0,0,0,0,0,-0.2631,-0.2627,-0.2669,-0.2671,-0.2645,-0.2655,-0.2657,-0.2666,-0.2646,-0.2643,-0.2664,-0.2662,-0.2632,-0.2629,-0.2626,-0.2642,-0.2609,-0.2608,-0.2607,-0.262,-0.2621,-0.2622,0,0,0,0,0,0,-0.2629,-0.2635,-0.2669,-0.2651,-0.2655,-0.2658,-0.2668,-0.2667,-0.2668,-0.2652,-0.2647,-0.2667,-0.2632,-0.2628,-0.2627,-0.264,-0.2607,-0.2606,-0.2619,-0.2621,-0.2622,-0.2669,0,0,0,0,0,0,-0.2628,-0.2634,-0.2639,-0.2652,-0.2657,-0.2687,-0.2669,-0.2668,-0.2675,-0.2673,-0.2653,-0.2648,-0.2631,-0.2629,-0.2626,-0.2638,-0.2605,-0.2618,-0.262,-0.2621,-0.2666,-0.2672,-0.2677,0,0,0,0,0,-0.2626,-0.2638,-0.2639,-0.2644,-0.2664,-0.2688,-0.269,-0.2686,-0.2676,-0.2683,-0.2671,-0.2649,-0.2639,-0.2629,-0.2625,-0.2637,-0.2617,-0.2619,-0.2621,-0.2664,-0.2671,-0.2677,0,0,0,0,0,0,-0.2612,-0.2637,-0.2639,-0.2657,-0.2674,-0.2686,-0.2691,-0.2691,-0.2688,-0.2682,-0.266,-0.2656,-0.2661,-0.2646,-0.2636,-0.2648,-0.2625,-0.2626,-0.2658,-0.2664,-0.267,-0.267,-0.2605,0,0,0,0,0,-0.2614,-0.2627,-0.2652,-0.2664,-0.2675,-0.2684,-0.2691,-0.2694,-0.2697,-0.2694,-0.2683,-0.2671,-0.2669,-0.2663,-0.2658,-0.2663,-0.264,-0.2669,-0.2675,-0.2679,-0.2678,-0.2671,-0.2676,-0.263,-0.263,-0.263,0,0,-0.2609,-0.2626,-0.2631,-0.2662,-0.2671,-0.2696,-0.2685,-0.2703,-0.272,-0.269,-0.2699,-0.269,-0.2676,-0.2684,-0.2685,-0.2671,-0.2678,-0.2682,-0.2686,-0.2682,-0.2674,-0.2678,-0.2682,-0.2631,-0.2631,-0.2631,0,0,-0.2613,-0.2626,-0.2641,-0.2663,-0.269,-0.2702,-0.2711,-0.273,-0.2732,-0.2747,-0.2731,-0.2729,-0.2724,-0.2718,-0.2713,-0.2745,-0.2709,-0.2746,-0.2768,-0.2762,-0.2766,-0.2769,-0.2731,-0.273,-0.2746,-0.2746,-0.2746,0,-0.2606,-0.2632,-0.2649,-0.2676,-0.2696,-0.2708,-0.2735,-0.2747,-0.2761,-0.2768,-0.2755,-0.2756,-0.274,-0.2752,-0.2761,-0.2755,-0.2737,-0.2744,-0.2769,-0.2771,-0.2773,-0.2734,-0.2732,-0.2748,-0.2748,-0.2748,-0.2748,0,-0.2625,-0.2651,-0.2664,-0.2702,-0.2727,-0.2751,-0.278,-0.2797,-0.28,-0.2809,-0.2823,-0.2806,-0.2804,-0.2804,-0.2788,-0.2802,-0.2778,-0.2778,-0.275,-0.278,-0.2737,-0.2735,-0.2752,-0.2751,-0.275,-0.275,0,0,-0.2591,-0.2663,-0.2665,-0.2691,-0.2744,-0.2763,-0.2802,-0.2836,-0.2853,-0.2863,-0.2876,-0.2876,-0.2864,-0.2858,-0.2843,-0.2836,-0.2826,-0.2814,-0.2813,-0.2773,-0.2791,-0.2707,-0.2695,-0.2834,-0.2834,-0.2834,-0.275,0,-0.2597,-0.265,-0.2688,-0.2734,-0.2765,-0.2803,-0.2837,-0.2869,-0.2885,-0.2901,-0.2896,-0.29,-0.2887,-0.2881,-0.2877,-0.2841,-0.2824,-0.2847,-0.2772,-0.2769,-0.2687,-0.2692,-0.2505,-0.241,-0.2748,-0.2747,-0.2747,0,-0.2595,-0.2635,-0.2685,-0.2755,-0.2771,-0.2801,-0.2852,-0.2885,-0.2921,-0.2932,-0.2945,-0.2939,-0.2932,-0.2913,-0.2871,-0.2888,-0.2843,-0.2811,-0.2808,-0.271,-0.268,-0.2438,-0.2392,-0.2742,-0.2742,-0.2743,-0.2743,0,-0.2548,-0.2627,-0.2664,-0.2689,-0.2772,-0.2797,-0.2835,-0.2886,-0.291,-0.2944,-0.2953,-0.2959,-0.2942,-0.2914,-0.2848,-0.2863,-0.2785,-0.2795,-0.2674,-0.2667,-0.2481,-0.2457,-0.2761,-0.2761,-0.2761,-0.2761,-0.2762,0,-0.2532,-0.2557,-0.2644,-0.2663,-0.2701,-0.2771,-0.2807,-0.2848,-0.29,-0.2917,-0.2956,-0.2953,-0.2943,-0.29,-0.2851,-0.274,-0.2784,-0.2668,-0.2642,-0.2491,-0.247,-0.2744,-0.2743,-0.2758,-0.2759,-0.2759,-0.276,0,-0.2463,-0.2526,-0.2569,-0.2656,-0.2679,-0.27,-0.2781,-0.2803,-0.2869,-0.2889,-0.2899,-0.2935,-0.2881,-0.2843,-0.2774,-0.2719,-0.2637,-0.2586,-0.2393,-0.2347,-0.2522,-0.2525,-0.2448,-0.2445,-0.2442,-0.2439,-0.2437,0,-0.243,-0.2447,-0.2534,-0.2548,-0.2582,-0.2633,-0.2662,-0.2761,-0.2789,-0.2864,-0.2859,-0.2844,-0.2782,-0.2654,-0.256,-0.2439,-0.2529,-0.2212,-0.2214,-0.2509,-0.2492,-0.2499,-0.2506,-0.1976,-0.197,-0.1966,-0.1962,0,-0.2349,-0.2381,-0.2409,-0.2449,-0.2482,-0.2522,-0.2577,-0.2596,-0.2702,-0.272,-0.2714,-0.2673,-0.2577,-0.2366,-0.2237,-0.2157,-0.2223,-0.2114,-0.2457,-0.2098,-0.206,-0.2045,-0.2068,-0.192,-0.1924,-0.1927,-0.193,-0.1931,-0.2261,-0.2259,-0.2296,-0.2317,-0.2356,-0.2369,-0.2351,-0.2412,-0.2421,-0.2393,-0.2485,-0.2336,-0.23,-0.1984,-0.1876,-0.1795,-0.1951,-0.1864,-0.1879,-0.19,-0.1874,-0.1834,-0.1645,-0.1647,-0.1649,-0.1651,-0.1653,0,-0.2132,-0.2142,-0.2158,-0.2174,-0.2152,-0.2229,-0.2253,-0.218,-0.2121,-0.2118,-0.2066,-0.1784,-0.1662,-0.1625,-0.1436,-0.1409,-0.141,-0.1354,-0.1355,-0.1396,-0.1433,-0.1386,-0.1026,-0.1024,-0.1022,-0.102,0,0,-0.2061,-0.202,-0.2032,-0.1949,-0.1961,-0.1882,-0.1859,-0.1743,-0.1685,-0.1503,-0.1412,-0.1535,-0.155,-0.1273,-0.1228,-0.109,-0.1228,-0.1035,-0.1536,-0.1576,-0.1611,-0.1723,-0.1695,0,0,0,0,0]},{"header":{"parameterUnit":"m.s-1","parameterCategory":2,"la1":30.2991,"la2":30.254,"lo1":-89.0895,"lo2":-89.0444,"dy":0.0017,"dx":0.0017,"nx":28,"ny":28,"refTime":"2025-04-18T03:00:00:Z","depth":"2","parameterNumber":3,"parameterNumberName":"V-component_of_CURRENTS"},"data":[0,0,0,0,0,0,0,0,0,0,0,0,0,0,0,0,0,0,0,0,0,0,0,0,0,0,0,0,0,0,0,0,0,0,0,0,0,0,0,0,0,0,0,0,0,0,0,0,0,0,0,0,0,0,0,0,0,0,-0.0323,-0.0323,0,-0.0242,-0.0241,-0.024,-0.0183,-0.0183,-0.0183,-0.0182,-0.0063,-0.006,-0.0057,0,0,0,0,0,0,0,0,0,0,0,0,0,-0.0377,-0.0377,-0.0324,-0.0323,-0.0322,-0.0243,-0.0241,-0.024,-0.0183,-0.0183,-0.0183,-0.0182,-0.0064,-0.006,-0.0057,0,0,0,0,0,0,0,0,0,0,0,0,0,-0.033,-0.0377,-0.0324,-0.0285,-0.0281,-0.0243,-0.0241,-0.024,-0.0184,-0.0183,-0.0182,-0.0182,-0.0065,-0.006,-0.0056,-0.004,0,0,-0.0043,-0.0041,0,0,0,0,0,0,0,0,-0.0333,-0.0328,-0.0291,-0.0287,-0.0283,-0.0224,-0.0216,-0.0171,-0.0184,-0.0219,-0.0182,-0.0182,-0.0114,-0.0106,-0.009,-0.0034,-0.0029,-0.0043,-0.004,-0.0038,-0.0037,0,0,0,0,0,0,0,-0.0336,-0.0331,-0.029,-0.0291,-0.0285,-0.0254,-0.0247,-0.0208,-0.0169,-0.0216,-0.0212,-0.0205,-0.0111,-0.0095,-0.0087,-0.0027,-0.0043,-0.0039,-0.0036,-0.0035,0.0067,0.0067,0,0,0,0,0,0,-0.0352,-0.0334,-0.0293,-0.0288,-0.0308,-0.0253,-0.0246,-0.0242,-0.017,-0.0159,-0.0205,-0.0203,-0.0102,-0.0092,-0.0083,-0.0051,-0.0038,-0.0034,-0.0032,0.0067,0.0067,0.0067,0,0,0,0,0,0,-0.0354,-0.0349,-0.0296,-0.031,-0.0301,-0.0254,-0.025,-0.0241,-0.0224,-0.0163,-0.0151,-0.0198,-0.0101,-0.0089,-0.0047,-0.0047,-0.0032,-0.0028,0.0067,0.0067,0.0067,0.0006,0,0,0,0,0,0,-0.0355,-0.035,-0.0355,-0.0311,-0.0301,-0.0281,-0.025,-0.024,-0.0221,-0.0216,-0.0152,-0.0141,-0.01,-0.0054,-0.0043,-0.004,-0.0025,0.0067,0.0067,0.0067,0.0008,0.0004,0.0001,0,0,0,0,0,-0.0358,-0.0369,-0.0356,-0.0351,-0.0309,-0.0281,-0.0273,-0.0236,-0.0221,-0.0219,-0.0172,-0.0143,-0.0045,-0.0051,-0.0038,-0.0034,0.0067,0.0067,0.0067,0.001,0.0005,0.0001,0,0,0,0,0,0,-0.0395,-0.0363,-0.0348,-0.0348,-0.032,-0.0272,-0.0268,-0.0243,-0.0204,-0.0199,-0.014,-0.0126,-0.009,-0.0054,-0.0062,-0.0003,0.0016,0.0019,-0.0032,-0.0036,-0.004,-0.0055,-0.0021,0,0,0,0,0,-0.0407,-0.0407,-0.0368,-0.0369,-0.0358,-0.0315,-0.03,-0.0275,-0.0235,-0.0218,-0.0173,-0.0123,-0.0079,-0.0053,-0.0011,0.0021,0.0066,0.0032,0.0029,0.0026,0.0023,0.0093,0.0096,0.0068,0.0068,0.0068,0,0,-0.0422,-0.0405,-0.0404,-0.0377,-0.0353,-0.0345,-0.0304,-0.0288,-0.0276,-0.0211,-0.0182,-0.0136,-0.0074,-0.0038,-0.0019,-0.0007,0.0057,0.0026,0.0023,0.0022,0.0094,0.0096,0.0099,0.0068,0.0068,0.0068,0,0,-0.0457,-0.0438,-0.045,-0.0431,-0.0401,-0.0371,-0.037,-0.0325,-0.03,-0.0268,-0.0217,-0.0169,-0.0108,-0.0058,-0.0026,-0.0023,0.0032,-0.0012,-0.0037,0.0031,0.0034,0.0037,0.0094,0.0102,-0.001,-0.001,-0.001,0,-0.0478,-0.0486,-0.0449,-0.0454,-0.0444,-0.0389,-0.0397,-0.0362,-0.0308,-0.0283,-0.0269,-0.0164,-0.0115,-0.0056,-0.0056,-0.0031,0.0012,-0.0028,0.0026,0.003,0.0034,0.0092,0.0102,-0.0013,-0.0013,-0.0012,-0.0012,0,-0.052,-0.0524,-0.053,-0.0517,-0.0499,-0.0498,-0.0447,-0.0422,-0.0385,-0.0342,-0.0281,-0.0209,-0.0145,-0.0122,-0.0089,-0.0035,-0.0013,0.0009,0.0033,0.0033,0.0094,0.0106,-0.0017,-0.0016,-0.0015,-0.0015,0,0,-0.0572,-0.0564,-0.0565,-0.0572,-0.0534,-0.0525,-0.05,-0.0456,-0.0434,-0.0371,-0.0332,-0.0253,-0.0207,-0.0168,-0.0111,-0.0052,0.0012,-0.0017,-0.0012,0.0032,0.0157,0.0193,0.021,0.0044,0.0046,0.0047,0.0185,0,-0.0617,-0.0653,-0.0624,-0.0644,-0.0657,-0.0596,-0.0577,-0.0526,-0.0468,-0.0414,-0.0322,-0.0267,-0.0225,-0.0194,-0.0128,-0.0021,0.004,-0.0028,0.0156,0.0161,0.0189,0.0224,0.0177,0.0299,0.0197,0.0199,0.0201,0,-0.0668,-0.0685,-0.0723,-0.0713,-0.071,-0.0706,-0.0658,-0.0631,-0.0533,-0.0486,-0.0405,-0.0328,-0.023,-0.0198,-0.0017,-0.0063,0.0035,0.0118,0.0126,0.019,0.022,0.0285,0.0325,0.0221,0.0219,0.0218,0.0216,0,-0.0736,-0.0749,-0.0785,-0.0783,-0.0762,-0.0758,-0.0736,-0.0657,-0.0626,-0.0527,-0.0489,-0.0358,-0.0284,-0.0151,0.0019,0.0003,0.0224,0.0228,0.0356,0.0359,0.0372,0.0373,0.0356,0.0356,0.0355,0.0355,0.0354,0,-0.0801,-0.0825,-0.0823,-0.0845,-0.0875,-0.0827,-0.0826,-0.0778,-0.0697,-0.0652,-0.0536,-0.046,-0.0267,-0.0116,0.002,0.0232,0.0231,0.0363,0.0405,0.0349,0.0347,0.0318,0.0312,0.036,0.0359,0.0358,0.0357,0,-0.0873,-0.0871,-0.0913,-0.0913,-0.0913,-0.0934,-0.0901,-0.0888,-0.0803,-0.0738,-0.0709,-0.0519,-0.0313,-0.0116,0.013,0.0243,0.0431,0.0505,0.0422,0.0452,0.0516,0.0505,0.0656,0.0659,0.0661,0.0663,0.0664,0,-0.0914,-0.0947,-0.0979,-0.1009,-0.1014,-0.1029,-0.1034,-0.0958,-0.0928,-0.0764,-0.0732,-0.0514,-0.0336,0.0033,0.0269,0.0526,0.0519,0.0622,0.0586,0.0525,0.0551,0.0536,0.0522,0.0578,0.0578,0.0579,0.0579,0,-0.0991,-0.1001,-0.1037,-0.1106,-0.1132,-0.1148,-0.1138,-0.1126,-0.1011,-0.0912,-0.073,-0.0568,-0.0209,0.0086,0.041,0.0546,0.0573,0.0644,0.0628,0.0503,0.0461,0.0483,0.047,0.0585,0.0584,0.0584,0.0583,0.0583,-0.1039,-0.1086,-0.1135,-0.1194,-0.1229,-0.1244,-0.1241,-0.1183,-0.1096,-0.0913,-0.0745,-0.0462,-0.0204,0.0278,0.0488,0.0676,0.0676,0.0707,0.0701,0.0695,0.0656,0.062,0.0765,0.0766,0.0766,0.0767,0.0767,0,-0.1095,-0.1144,-0.1215,-0.1274,-0.1318,-0.1309,-0.1288,-0.1258,-0.1135,-0.0909,-0.0686,-0.0362,-0.001,0.0257,0.0561,0.074,0.0706,0.0757,0.0667,0.0661,0.0656,0.0611,0.0711,0.0711,0.0711,0.0712,0,0,-0.1123,-0.1205,-0.1243,-0.1329,-0.1362,-0.1374,-0.135,-0.1307,-0.1155,-0.0895,-0.0639,-0.0329,0.0005,0.0205,0.0419,0.0574,0.0564,0.0582,0.0607,0.0467,0.046,0.0609,0.0532,0,0,0,0,0]}],[{"header":{"parameterUnit":"m.s-1","parameterCategory":2,"la1":30.2991,"la2":30.254,"lo1":-89.0895,"lo2":-89.0444,"dy":0.0017,"dx":0.0017,"nx":28,"ny":28,"refTime":"2025-04-18T03:00:00:Z","depth":"4","parameterNumber":2,"parameterNumberName":"U-component_of_CURRENTS"},"data":[0,0,0,0,0,0,0,0,0,0,0,0,0,0,0,0,0,0,0,0,0,0,0,0,0,0,0,0,0,0,0,0,0,0,0,0,0,0,0,0,0,0,0,0,0,0,0,0,0,0,0,0,0,0,0,0,0,0,-0.1859,-0.186,0,-0.1922,-0.1923,-0.1923,-0.1965,-0.1965,-0.1966,-0.1966,-0.201,-0.2011,-0.2012,0,0,0,0,0,0,0,0,0,0,0,0,0,-0.1763,-0.1764,-0.1859,-0.186,-0.1861,-0.1922,-0.1923,-0.1924,-0.1965,-0.1965,-0.1966,-0.1967,-0.201,-0.2011,-0.2012,0,0,0,0,0,0,0,0,0,0,0,0,0,-0.1811,-0.1765,-0.1859,-0.1891,-0.1894,-0.1922,-0.1923,-0.1924,-0.1965,-0.1965,-0.1966,-0.1967,-0.201,-0.2011,-0.2012,-0.2005,0,0,-0.2015,-0.2016,0,0,0,0,0,0,0,0,-0.1808,-0.1814,-0.1885,-0.1889,-0.1893,-0.1938,-0.1905,-0.1951,-0.1965,-0.1936,-0.1966,-0.1967,-0.1985,-0.1988,-0.1996,-0.2007,-0.2009,-0.2015,-0.2016,-0.2016,-0.2017,0,0,0,0,0,0,0,-0.1805,-0.1812,-0.1882,-0.1886,-0.1891,-0.1898,-0.1905,-0.1914,-0.1954,-0.1938,-0.1942,-0.1952,-0.1987,-0.1995,-0.1997,-0.2009,-0.2015,-0.2016,-0.2017,-0.2017,-0.2103,-0.2104,0,0,0,0,0,0,-0.1801,-0.1809,-0.188,-0.1884,-0.1854,-0.1899,-0.1908,-0.1921,-0.1954,-0.1961,-0.1952,-0.1954,-0.1993,-0.1996,-0.1999,-0.2073,-0.2016,-0.2018,-0.2018,-0.2101,-0.2103,-0.2105,0,0,0,0,0,0,-0.1799,-0.1807,-0.1878,-0.1849,-0.1859,-0.19,-0.1915,-0.1922,-0.1964,-0.1965,-0.1971,-0.199,-0.1993,-0.1997,-0.2041,-0.2072,-0.2018,-0.2019,-0.2099,-0.2102,-0.2104,-0.217,0,0,0,0,0,0,-0.1796,-0.1806,-0.183,-0.1849,-0.1861,-0.1918,-0.1915,-0.1923,-0.1968,-0.1972,-0.1999,-0.2002,-0.1994,-0.204,-0.2042,-0.2073,-0.202,-0.2097,-0.21,-0.2103,-0.2165,-0.2174,-0.2181,0,0,0,0,0,-0.1792,-0.1818,-0.1831,-0.184,-0.1887,-0.192,-0.1927,-0.1956,-0.1969,-0.1995,-0.2017,-0.2003,-0.206,-0.2042,-0.2045,-0.2076,-0.2096,-0.21,-0.2103,-0.2162,-0.2172,-0.2181,0,0,0,0,0,0,-0.179,-0.1825,-0.184,-0.1876,-0.1908,-0.1928,-0.1959,-0.1976,-0.2013,-0.2027,-0.2025,-0.203,-0.2078,-0.207,-0.205,-0.211,-0.2075,-0.208,-0.2119,-0.2129,-0.2137,-0.2128,-0.2021,0,0,0,0,0,-0.18,-0.183,-0.186,-0.1893,-0.1913,-0.1942,-0.1965,-0.1986,-0.2014,-0.2033,-0.2053,-0.2072,-0.2089,-0.2106,-0.2118,-0.2152,-0.2124,-0.2174,-0.2182,-0.2189,-0.2185,-0.218,-0.2187,-0.2117,-0.2117,-0.2117,0,0,-0.1809,-0.1832,-0.1852,-0.1896,-0.1923,-0.1958,-0.1959,-0.2006,-0.204,-0.203,-0.2093,-0.2104,-0.2105,-0.2145,-0.2166,-0.2147,-0.2194,-0.2194,-0.2199,-0.2191,-0.2184,-0.2191,-0.2197,-0.2119,-0.2119,-0.2118,0,0,-0.183,-0.1865,-0.1895,-0.1926,-0.1975,-0.1993,-0.2015,-0.2057,-0.2087,-0.214,-0.2141,-0.2172,-0.2207,-0.221,-0.2214,-0.2273,-0.2237,-0.2286,-0.2319,-0.2316,-0.2321,-0.2325,-0.2291,-0.2291,-0.2289,-0.2289,-0.2289,0,-0.1842,-0.1881,-0.191,-0.1946,-0.1978,-0.2013,-0.2052,-0.2085,-0.2139,-0.2163,-0.2172,-0.2227,-0.2232,-0.2264,-0.2287,-0.229,-0.2273,-0.2282,-0.2325,-0.2328,-0.2331,-0.2295,-0.2295,-0.2293,-0.2293,-0.2292,-0.2292,0,-0.1873,-0.192,-0.1943,-0.1999,-0.2037,-0.2079,-0.2123,-0.2171,-0.221,-0.2234,-0.2292,-0.2303,-0.2328,-0.2341,-0.2333,-0.2365,-0.234,-0.2335,-0.2296,-0.2342,-0.2301,-0.2299,-0.2298,-0.2297,-0.2296,-0.2295,0,0,-0.1854,-0.1947,-0.1958,-0.1995,-0.2071,-0.2099,-0.2167,-0.2223,-0.2261,-0.2317,-0.2356,-0.2396,-0.2402,-0.2406,-0.2405,-0.2406,-0.2413,-0.2387,-0.2385,-0.2344,-0.2387,-0.2233,-0.2216,-0.2422,-0.2422,-0.2422,-0.2346,0,-0.1871,-0.1942,-0.1989,-0.2063,-0.2101,-0.216,-0.2213,-0.2271,-0.2318,-0.2364,-0.2388,-0.2425,-0.2427,-0.2442,-0.2448,-0.2421,-0.2414,-0.2432,-0.2355,-0.2352,-0.2203,-0.2211,-0.2424,-0.2345,-0.2344,-0.2344,-0.2344,0,-0.1874,-0.1925,-0.2001,-0.2091,-0.2114,-0.2167,-0.225,-0.2302,-0.2371,-0.2405,-0.245,-0.2465,-0.2485,-0.2477,-0.2455,-0.247,-0.2436,-0.241,-0.2406,-0.2235,-0.2194,-0.2292,-0.234,-0.2341,-0.2341,-0.2341,-0.2341,0,-0.1822,-0.1928,-0.1989,-0.2022,-0.2129,-0.218,-0.2238,-0.2318,-0.2356,-0.2431,-0.2453,-0.2489,-0.2494,-0.248,-0.2434,-0.2451,-0.2385,-0.2396,-0.2222,-0.221,-0.2344,-0.2341,-0.2374,-0.2375,-0.2375,-0.2375,-0.2375,0,-0.1797,-0.1849,-0.1977,-0.2007,-0.2074,-0.2163,-0.2232,-0.2293,-0.2369,-0.2392,-0.2468,-0.2467,-0.2499,-0.2467,-0.2433,-0.2301,-0.2381,-0.2211,-0.2178,-0.2373,-0.2374,-0.2342,-0.2339,-0.2372,-0.2373,-0.2373,-0.2374,0,-0.1719,-0.1809,-0.1882,-0.201,-0.2052,-0.2099,-0.2218,-0.225,-0.2343,-0.2372,-0.2394,-0.2446,-0.2397,-0.2391,-0.2341,-0.2265,-0.2179,-0.2116,-0.2299,-0.228,-0.2008,-0.201,-0.1909,-0.1903,-0.1898,-0.1893,-0.189,0,-0.168,-0.1714,-0.186,-0.1896,-0.196,-0.2049,-0.2094,-0.2217,-0.2242,-0.2328,-0.2311,-0.2317,-0.2325,-0.2107,-0.2144,-0.2044,-0.2028,-0.197,-0.2013,-0.1981,-0.196,-0.1971,-0.1979,-0.1882,-0.188,-0.1879,-0.1877,0,-0.1592,-0.1663,-0.1716,-0.1795,-0.1862,-0.192,-0.1998,-0.1997,-0.211,-0.2224,-0.2147,-0.2103,-0.2038,-0.1985,-0.1911,-0.1857,-0.2003,-0.1916,-0.1928,-0.1968,-0.1947,-0.1933,-0.1948,-0.1859,-0.1862,-0.1864,-0.1865,0,-0.1517,-0.1531,-0.1609,-0.1657,-0.1738,-0.1745,-0.1814,-0.1824,-0.1862,-0.1966,-0.1935,-0.1943,-0.2004,-0.1884,-0.1825,-0.1746,-0.1731,-0.1679,-0.1703,-0.1723,-0.17,-0.1649,-0.1423,0,0,0,0,0,-0.1427,-0.1418,-0.1456,-0.1492,-0.1566,-0.1598,-0.1716,-0.1787,-0.1904,-0.1791,-0.1854,-0.1785,-0.1693,-0.171,-0.1585,-0.1751,-0.1744,-0.1602,-0.17,-0.1759,-0.178,-0.1771,0,0,0,0,0,0,-0.1363,-0.1392,-0.1399,-0.1339,-0.1318,-0.137,-0.143,-0.1517,-0.147,-0.1597,-0.1548,-0.1654,-0.1586,-0.1701,-0.1529,-0.1535,-0.1558,-0.163,-0.1625,-0.1747,-0.1766,-0.1783,-0.1781,0,0,0,0,0]},{"header":{"parameterUnit":"m.s-1","parameterCategory":2,"la1":30.2991,"la2":30.254,"lo1":-89.0895,"lo2":-89.0444,"dy":0.0017,"dx":0.0017,"nx":28,"ny":28,"refTime":"2025-04-18T03:00:00:Z","depth":"4","parameterNumber":3,"parameterNumberName":"V-component_of_CURRENTS"},"data":[0,0,0,0,0,0,0,0,0,0,0,0,0,0,0,0,0,0,0,0,0,0,0,0,0,0,0,0,0,0,0,0,0,0,0,0,0,0,0,0,0,0,0,0,0,0,0,0,0,0,0,0,0,0,0,0,0,0,-0.0295,-0.0295,0,-0.024,-0.0239,-0.0239,-0.0207,-0.0207,-0.0207,-0.0207,-0.0115,-0.0113,-0.011,0,0,0,0,0,0,0,0,0,0,0,0,0,-0.0329,-0.0329,-0.0295,-0.0295,-0.0294,-0.024,-0.0239,-0.0238,-0.0207,-0.0207,-0.0207,-0.0206,-0.0116,-0.0113,-0.011,0,0,0,0,0,0,0,0,0,0,0,0,0,-0.0297,-0.0329,-0.0296,-0.0273,-0.027,-0.024,-0.0239,-0.0238,-0.0207,-0.0207,-0.0207,-0.0206,-0.0117,-0.0113,-0.011,-0.0088,0,0,-0.0099,-0.0097,0,0,0,0,0,0,0,0,-0.0299,-0.0296,-0.0277,-0.0274,-0.0271,-0.0231,-0.0218,-0.0187,-0.0207,-0.023,-0.0207,-0.0206,-0.0151,-0.0145,-0.0134,-0.0084,-0.008,-0.0098,-0.0096,-0.0095,-0.0094,0,0,0,0,0,0,0,-0.0302,-0.0298,-0.0272,-0.0276,-0.0273,-0.025,-0.0246,-0.0211,-0.019,-0.0228,-0.0225,-0.0221,-0.0149,-0.0137,-0.0131,-0.0079,-0.0099,-0.0095,-0.0093,-0.0092,0.0005,0.0005,0,0,0,0,0,0,-0.0313,-0.03,-0.0274,-0.0271,-0.0287,-0.025,-0.0245,-0.0243,-0.0191,-0.0184,-0.0221,-0.022,-0.0143,-0.0135,-0.0128,-0.0098,-0.0095,-0.0091,-0.0089,0.0005,0.0005,0.0006,0,0,0,0,0,0,-0.0314,-0.0311,-0.0276,-0.0285,-0.0279,-0.025,-0.0248,-0.0242,-0.0233,-0.0187,-0.0178,-0.0219,-0.0143,-0.0133,-0.0098,-0.0095,-0.009,-0.0086,0.0004,0.0005,0.0005,-0.004,0,0,0,0,0,0,-0.0315,-0.0312,-0.0318,-0.0286,-0.0279,-0.0264,-0.0248,-0.0241,-0.0231,-0.0229,-0.0181,-0.0173,-0.0142,-0.0104,-0.0094,-0.009,-0.0084,0.0004,0.0004,0.0005,-0.0039,-0.0041,-0.0043,0,0,0,0,0,-0.0317,-0.0324,-0.0319,-0.0316,-0.0287,-0.0265,-0.0259,-0.0237,-0.0231,-0.0229,-0.0195,-0.0174,-0.0092,-0.01,-0.009,-0.0084,0.0003,0.0004,0.0005,-0.0038,-0.004,-0.0043,0,0,0,0,0,0,-0.0341,-0.032,-0.0314,-0.0315,-0.0295,-0.026,-0.0258,-0.0242,-0.0214,-0.0213,-0.0169,-0.0158,-0.0127,-0.0097,-0.0108,-0.0052,-0.0041,-0.0038,-0.0077,-0.0079,-0.0081,-0.0095,-0.0081,0,0,0,0,0,-0.0351,-0.0352,-0.0325,-0.0328,-0.032,-0.0291,-0.0281,-0.0266,-0.0236,-0.0224,-0.019,-0.0151,-0.0114,-0.0092,-0.0057,-0.0027,0.0005,-0.0015,-0.0016,-0.0018,-0.0021,0.0032,0.0034,0.0009,0.0009,0.0009,0,0,-0.0362,-0.0351,-0.0352,-0.0333,-0.0318,-0.0309,-0.0285,-0.0274,-0.0264,-0.0217,-0.0195,-0.0159,-0.0108,-0.0075,-0.0057,-0.005,0.0005,-0.0017,-0.0019,-0.0021,0.0033,0.0035,0.0038,0.0009,0.0009,0.0009,0,0,-0.0383,-0.0375,-0.0383,-0.0369,-0.035,-0.0329,-0.0329,-0.0296,-0.028,-0.0253,-0.0216,-0.0177,-0.0125,-0.0084,-0.0057,-0.0046,-0.0009,-0.0036,-0.0052,-0.0001,0.0001,0.0004,0.0042,0.0048,-0.0034,-0.0034,-0.0034,0,-0.0399,-0.0404,-0.0381,-0.0382,-0.0377,-0.0341,-0.0345,-0.032,-0.028,-0.0264,-0.0254,-0.0168,-0.0128,-0.0076,-0.0073,-0.005,-0.0021,-0.0051,-0.0005,-0.0001,0.0002,0.0041,0.0048,-0.0036,-0.0036,-0.0035,-0.0035,0,-0.042,-0.0427,-0.043,-0.0421,-0.0409,-0.0408,-0.0372,-0.0356,-0.0334,-0.0303,-0.0256,-0.0195,-0.0146,-0.0122,-0.0094,-0.0048,-0.0036,-0.0018,-0.0004,0.0001,0.0043,0.0051,-0.0039,-0.0038,-0.0037,-0.0037,0,0,-0.0451,-0.0447,-0.0451,-0.0459,-0.0433,-0.0428,-0.0409,-0.038,-0.037,-0.0319,-0.0294,-0.0221,-0.019,-0.0157,-0.011,-0.006,-0.0012,-0.0035,-0.0031,-0.0005,0.0093,0.0074,0.0082,0.0012,0.0014,0.0015,0.011,0,-0.0478,-0.0501,-0.0483,-0.0502,-0.0511,-0.0475,-0.0462,-0.0429,-0.0392,-0.0357,-0.0282,-0.0241,-0.0202,-0.0179,-0.0123,-0.0041,0.001,-0.004,0.0092,0.0095,0.0072,0.0091,0.0019,0.0116,0.0118,0.012,0.0121,0,-0.0503,-0.0519,-0.0548,-0.0553,-0.0553,-0.0555,-0.0535,-0.0516,-0.045,-0.0419,-0.0359,-0.03,-0.0218,-0.0188,-0.0046,-0.0081,-0.0002,0.0065,0.0071,0.0074,0.0093,0.0114,0.0137,0.0136,0.0135,0.0134,0.0133,0,-0.0546,-0.0562,-0.0594,-0.0596,-0.059,-0.0598,-0.059,-0.0542,-0.0526,-0.0458,-0.0435,-0.0332,-0.0276,-0.0167,-0.0032,-0.0038,0.0126,0.0137,0.0198,0.0197,0.0205,0.0201,0.024,0.024,0.0239,0.0239,0.0239,0,-0.058,-0.0606,-0.0625,-0.0643,-0.0681,-0.0653,-0.067,-0.0642,-0.0593,-0.057,-0.0477,-0.0426,-0.0267,-0.0153,-0.0039,0.0103,0.0123,0.0197,0.0224,0.0183,0.0176,0.0211,0.0206,0.0243,0.0242,0.0241,0.0241,0,-0.0617,-0.0628,-0.0672,-0.0693,-0.0706,-0.0734,-0.0737,-0.0737,-0.0685,-0.065,-0.0629,-0.0487,-0.0337,-0.0178,0.0016,0.009,0.0229,0.0278,0.0217,0.0238,0.0266,0.0258,0.0344,0.0345,0.0345,0.0345,0.0345,0,-0.0636,-0.0664,-0.0724,-0.0762,-0.0779,-0.0814,-0.0833,-0.0794,-0.078,-0.0681,-0.0659,-0.0507,-0.0402,-0.0137,0.002,0.0231,0.0261,0.0318,0.0295,0.0261,0.0278,0.027,0.0262,0.0345,0.0345,0.0345,0.0345,0,-0.0673,-0.0701,-0.074,-0.0824,-0.0869,-0.0904,-0.0919,-0.0913,-0.0847,-0.0805,-0.0663,-0.0513,-0.0338,-0.0133,0.0035,0.0184,0.0267,0.032,0.032,0.03,0.0263,0.0278,0.027,0.0346,0.0346,0.0346,0.0346,0,-0.07,-0.0743,-0.0804,-0.0871,-0.0937,-0.0968,-0.0971,-0.0926,-0.0893,-0.0766,-0.0719,-0.0515,-0.0384,-0.0156,-0.0003,0.0141,0.017,0.0197,0.0204,0.0206,0.0132,0.0063,0.011,0,0,0,0,0,-0.0719,-0.0769,-0.0843,-0.0914,-0.098,-0.1011,-0.1013,-0.0993,-0.093,-0.0835,-0.0768,-0.0595,-0.0336,-0.0213,-0.0071,-0.0026,0.0169,0.0139,0.0197,0.0349,0.0349,0.0283,0,0,0,0,0,0,-0.0732,-0.0805,-0.0845,-0.0934,-0.0988,-0.1044,-0.1047,-0.1003,-0.0928,-0.0843,-0.0692,-0.0592,-0.0333,-0.0419,-0.0078,-0.0033,0.0015,0.0272,0.0274,0.035,0.0349,0.0348,0.0281,0,0,0,0,0]}]]